{"data":{"norad_id":48280,"intl_designator":"2021-036E","name":"STARLINK-2565","alt_names":[],"object_type":"PAYLOAD","status":"ACTIVE","operator":null,"country":"US","launch_date":"2021-04-29","launch_site_code":"AFETR","launch_vehicle":null,"mission":null,"orbit_class":"UNKNOWN","rcs_meters":null,"size_class":null,"mass_kg":null,"dimensions":null,"purposes":["comms"],"wikipedia_slug":null,"has_3d_model":false,"image_url":null,"decayed_at":null,"tle_current":{"epoch":"2026-05-25T03:16:08.139648Z","epoch_age_seconds":73448,"freshness":"FRESH","line1":"1 48280U 21036E   26145.13620532  .00002087  00000+0  79009-4 0  9999","line2":"2 48280  53.1594 105.6309 0001280  67.1903 292.9233 15.31690874279745","mean_motion":15.31690874,"eccentricity":0.000128,"inclination_deg":53.1594,"raan_deg":105.6309,"arg_perigee_deg":67.1903,"mean_anomaly_deg":292.9233,"bstar":7.9009e-5,"rev_number":27974,"period_min":94.013748103065,"perigee_km":469.8905397543,"apogee_km":471.64385922937,"semimajor_km":6848.9041994918,"source":"CELESTRAK","updated_at":"2026-05-25T13:38:16.672580Z"}}}